$Date,$Time,DM0201B,DM0203B,DM0205B,DM0207B,DM0209B
01/11/99,00:00:01,0,0,0,0,0
01/11/99,00:05:01,140,172,-6,792,960
01/11/99,00:10:01,131,157,-6,762,960
01/11/99,00:15:01,116,193,-6,725,960
01/11/99,00:20:01,209,173,-6,552,960
01/11/99,00:25:01,190,174,-6,467,960
01/11/99,00:30:01,213,171,-6,669,960
01/11/99,00:35:01,208,168,-6,712,960
01/11/99,00:40:01,224,185,-6,675,960
01/11/99,00:45:01,172,171,-6,575,960
01/11/99,00:50:01,224,173,-6,533,960
01/11/99,00:55:01,212,177,-6,551,960
01/11/99,01:00:01,213,167,-6,531,960
01/11/99,01:05:01,209,167,-6,537,960
01/11/99,01:10:01,191,166,-6,503,960
01/11/99,01:15:01,178,160,-6,495,960
01/11/99,01:20:01,173,163,-6,489,960
01/11/99,01:25:01,195,168,-6,541,960
01/11/99,01:30:01,176,179,-6,511,960
01/11/99,01:35:01,157,180,-6,560,960
01/11/99,01:40:01,165,176,-6,601,960
01/11/99,01:45:01,167,182,-7,605,960
01/11/99,01:50:01,209,175,-6,605,960
01/11/99,01:55:01,190,169,-6,607,960
01/11/99,02:00:01,143,170,-6,609,960
01/11/99,02:05:01,130,146,-6,615,960
01/11/99,02:10:01,42,343,-5,225,960
01/11/99,02:15:01,42,341,-5,691,960
01/11/99,02:20:01,76,11,-5,663,960
01/11/99,02:25:01,3,59,-5,381,960
01/11/99,02:30:01,11,154,-4,257,960
01/11/99,02:35:01,20,349,-5,376,960
01/11/99,02:40:01,3,281,-4,540,960
01/11/99,02:45:01,81,6,-4,453,960
01/11/99,02:50:01,117,2,-5,537,960
01/11/99,02:55:01,82,3,-4,711,960
01/11/99,03:00:01,86,10,-5,728,960
01/11/99,03:05:01,103,10,-4,759,960
01/11/99,03:10:01,101,10,-3,806,960
01/11/99,03:15:01,114,20,-3,416,960
01/11/99,03:20:01,74,33,-4,718,960
01/11/99,03:25:01,69,6,-3,681,960
01/11/99,03:30:01,98,1,-3,618,960
01/11/99,03:35:01,70,2,-3,635,960
01/11/99,03:40:01,76,21,-3,669,960
01/11/99,03:45:01,75,357,-1,643,960
01/11/99,03:50:01,81,8,-2,612,960
01/11/99,03:55:01,90,356,-3,475,960
01/11/99,04:00:01,92,359,-3,595,960
01/11/99,04:05:01,84,14,-3,520,960
01/11/99,04:10:01,83,14,-3,597,960
01/11/99,04:15:01,103,19,-3,634,960
01/11/99,04:20:01,94,9,-4,332,960
01/11/99,04:25:01,84,5,-5,664,960
01/11/99,04:30:01,94,6,-3,644,960
01/11/99,04:35:01,104,10,-3,628,960
01/11/99,04:40:01,102,18,-2,633,960
01/11/99,04:45:01,78,22,-3,651,960
01/11/99,04:50:01,82,12,-4,415,960
01/11/99,04:55:01,62,2,-4,498,960
01/11/99,05:00:01,65,357,-4,502,960
01/11/99,05:05:01,102,1,-4,486,960
01/11/99,05:10:01,78,4,-5,383,960
01/11/99,05:15:01,80,5,-5,276,960
01/11/99,05:20:01,73,16,-5,300,960
01/11/99,05:25:01,81,18,-5,297,960
01/11/99,05:30:01,75,23,-6,343,960
01/11/99,05:35:01,79,3,-6,339,960
01/11/99,05:40:01,71,4,-6,339,960
01/11/99,05:45:01,78,13,-5,333,960
01/11/99,05:50:01,71,12,-6,359,960
01/11/99,05:55:01,60,4,-6,361,960
01/11/99,06:00:01,79,354,-5,416,960
01/11/99,06:05:01,66,358,-5,415,960
01/11/99,06:10:01,60,1,-5,403,960
01/11/99,06:15:01,47,16,-4,417,960
01/11/99,06:20:01,55,13,-4,392,960
01/11/99,06:25:01,58,13,-5,347,960
01/11/99,06:30:01,57,1,-4,356,960
01/11/99,06:35:01,59,13,-5,340,960
01/11/99,06:40:01,71,12,-5,393,960
01/11/99,06:45:01,71,12,-4,448,960
01/11/99,06:50:01,70,12,-4,399,960
01/11/99,06:55:01,92,15,-3,363,960
01/11/99,07:00:01,58,15,-4,372,960
01/11/99,07:05:01,73,15,-3,386,960
01/11/99,07:10:01,81,16,-3,346,960
01/11/99,07:15:01,75,19,-3,342,960
01/11/99,07:20:01,64,18,-3,332,960
01/11/99,07:25:01,72,17,-4,322,960
01/11/99,07:30:01,81,13,-5,311,960
01/11/99,07:35:01,81,12,-5,303,960
01/11/99,07:40:01,80,20,-5,351,960
01/11/99,07:45:01,76,10,-6,333,960
01/11/99,07:50:01,73,20,-5,349,960
01/11/99,07:55:01,59,7,-5,322,960
01/11/99,08:00:01,73,4,-6,285,960
01/11/99,08:05:01,72,15,-6,253,960
01/11/99,08:10:01,72,16,-6,249,960
01/11/99,08:15:01,76,18,-6,255,960
01/11/99,08:20:01,64,18,-6,238,960
01/11/99,08:25:01,53,18,-6,213,960
01/11/99,08:30:01,64,18,-6,186,960
01/11/99,08:35:01,64,18,-7,167,960
01/11/99,08:40:01,67,18,-7,155,960
01/11/99,08:45:01,68,18,-7,163,960
01/11/99,08:50:01,68,18,-7,180,960
01/11/99,08:55:01,67,18,-7,188,960
01/11/99,09:00:01,72,18,-7,242,960
01/11/99,09:05:01,72,8,-7,231,960
01/11/99,09:10:01,63,12,-7,215,960
01/11/99,09:15:01,73,12,-7,208,960
01/11/99,09:20:01,73,12,-7,139,960
01/11/99,09:25:01,73,12,-7,81,960
01/11/99,09:30:01,53,23,-8,78,960
01/11/99,09:35:01,52,23,-8,80,960
01/11/99,09:40:01,74,23,-8,86,960
01/11/99,09:45:01,72,23,-8,98,960
01/11/99,09:50:01,59,23,-9,102,960
01/11/99,09:55:01,70,22,-9,95,960
01/11/99,10:00:01,70,12,-9,95,960
01/11/99,10:05:01,71,11,-10,74,960
01/11/99,10:10:01,72,22,-10,72,960
01/11/99,10:15:01,60,22,-10,92,960
01/11/99,10:20:01,73,10,-10,107,960
01/11/99,10:25:01,72,10,-9,273,960
01/11/99,10:30:01,71,11,-9,230,960
01/11/99,10:35:01,81,21,-8,234,960
01/11/99,10:40:01,85,21,-8,81,960
01/11/99,10:45:01,73,23,-8,75,960
01/11/99,10:50:01,53,25,-9,70,960
01/11/99,10:55:01,61,14,-8,198,960
01/11/99,11:00:01,57,12,-8,212,960
01/11/99,11:05:01,70,22,-8,207,960
01/11/99,11:10:01,62,12,-8,197,960
01/11/99,11:15:01,51,3,-8,193,960
01/11/99,11:20:01,55,1,-8,142,960
01/11/99,11:25:01,63,358,-8,131,960
01/11/99,11:30:01,54,359,-8,130,960
01/11/99,11:35:01,43,4,-9,67,960
01/11/99,11:40:01,43,6,-9,69,960
01/11/99,11:45:01,39,4,-9,91,960
01/11/99,11:50:01,55,357,-9,77,960
01/11/99,11:55:01,52,13,-9,76,960
01/11/99,12:00:01,52,29,-9,73,960
01/11/99,12:05:01,38,19,-9,77,960
01/11/99,12:10:01,45,16,-9,90,960
01/11/99,12:15:01,54,5,-9,88,960
01/11/99,12:20:01,61,24,-9,99,960
01/11/99,12:25:01,46,12,-9,115,960
01/11/99,12:30:01,44,20,-9,119,960
01/11/99,12:35:01,54,12,-9,121,960
01/11/99,12:40:01,68,20,-9,131,960
01/11/99,12:45:01,70,18,-9,167,960
01/11/99,12:50:01,58,359,-9,210,960
01/11/99,12:55:01,34,5,-9,196,960
01/11/99,13:00:01,46,1,-9,186,960
01/11/99,13:05:01,46,13,-10,192,960
01/11/99,13:10:01,44,353,-10,202,960
01/11/99,13:15:01,42,359,-10,200,960
01/11/99,13:20:01,63,1,-10,198,960
01/11/99,13:25:01,78,10,-10,182,960
01/11/99,13:30:01,53,3,-10,152,960
01/11/99,13:35:01,55,2,-10,167,960
01/11/99,13:40:01,49,1,-10,154,960
01/11/99,13:45:01,39,1,-10,163,960
01/11/99,13:50:01,47,1,-10,165,960
01/11/99,13:55:01,38,3,-10,169,960
01/11/99,14:00:01,56,354,-10,173,960
01/11/99,14:05:01,42,1,-10,165,960
01/11/99,14:10:01,43,348,-10,181,960
01/11/99,14:15:01,55,354,-10,174,960
01/11/99,14:20:01,37,7,-10,151,960
01/11/99,14:25:01,33,8,-10,153,960
01/11/99,14:30:01,67,350,-10,136,960
01/11/99,14:35:01,44,1,-10,104,960
01/11/99,14:40:01,46,17,-10,57,960
01/11/99,14:45:01,38,355,-10,61,960
01/11/99,14:50:01,62,356,-10,94,960
01/11/99,14:55:01,72,2,-10,60,960
01/11/99,15:00:01,56,8,-10,63,960
01/11/99,15:05:01,58,8,-10,107,960
01/11/99,15:10:01,66,9,-10,273,960
01/11/99,15:15:01,42,1,-10,297,960
01/11/99,15:20:01,53,342,-9,249,960
01/11/99,15:25:01,30,359,-9,168,960
01/11/99,15:30:01,57,1,-9,103,960
01/11/99,15:35:01,47,1,-10,69,960
01/11/99,15:40:01,54,7,-9,113,960
01/11/99,15:45:01,26,1,-9,188,960
01/11/99,15:50:01,27,3,-9,78,960
01/11/99,15:55:01,37,339,-9,116,960
01/11/99,16:00:01,49,347,-9,95,960
01/11/99,16:05:01,49,7,-9,77,960
01/11/99,16:10:01,30,353,-9,48,960
01/11/99,16:15:01,31,358,-9,44,960
01/11/99,16:20:01,25,344,-9,116,960
01/11/99,16:25:01,43,9,-9,69,960
01/11/99,16:30:01,66,16,-9,75,960
01/11/99,16:35:01,58,32,-9,82,960
01/11/99,16:40:01,76,9,-9,98,960
01/11/99,16:45:01,58,333,-9,82,960
01/11/99,16:50:01,46,339,-9,87,960
01/11/99,16:55:01,62,352,-9,77,960
01/11/99,17:00:01,78,342,-9,101,960
01/11/99,17:05:01,65,359,-9,90,960
01/11/99,17:10:01,63,358,-9,128,960
01/11/99,17:15:01,44,14,-9,168,960
01/11/99,17:20:01,47,7,-9,369,960
01/11/99,17:25:01,86,349,-9,112,960
01/11/99,17:30:01,36,344,-9,128,960
01/11/99,17:35:01,56,5,-9,131,960
01/11/99,17:40:01,33,1,-9,159,960
01/11/99,17:45:01,29,10,-9,149,960
01/11/99,17:50:01,55,5,-9,132,960
01/11/99,17:55:01,52,18,-9,121,960
01/11/99,18:00:01,52,8,-9,103,960
01/11/99,18:05:01,42,24,-9,169,960
01/11/99,18:10:01,52,14,-9,120,960
01/11/99,18:15:01,58,25,-9,81,960
01/11/99,18:20:01,59,20,-9,88,960
01/11/99,18:25:01,61,20,-9,86,960
01/11/99,18:30:01,68,6,-9,71,960
01/11/99,18:35:01,66,21,-9,64,960
01/11/99,18:40:01,31,44,-9,93,960
01/11/99,18:45:01,60,30,-9,131,960
01/11/99,18:50:01,31,42,-9,129,960
01/11/99,18:55:01,36,28,-9,146,960
01/11/99,19:00:01,44,12,-9,183,960
01/11/99,19:05:01,42,35,-9,196,960
01/11/99,19:10:01,42,14,-8,157,960
01/11/99,19:15:01,42,14,-9,157,960
01/11/99,19:20:01,52,26,-8,167,960
01/11/99,19:25:01,58,10,-9,173,960
01/11/99,19:30:01,63,24,-9,177,960
01/11/99,19:35:01,61,71,-8,173,960
01/11/99,19:40:01,35,29,-8,154,960
01/11/99,19:45:01,48,34,-8,127,960
01/11/99,19:50:01,51,19,-8,129,960
01/11/99,19:55:01,69,36,-8,116,960
01/11/99,20:00:01,69,58,-8,108,960
01/11/99,20:05:01,58,29,-9,116,960
01/11/99,20:10:01,56,42,-8,147,960
01/11/99,20:15:01,53,51,-8,172,960
01/11/99,20:20:01,60,57,-8,132,960
01/11/99,20:25:01,52,49,-8,104,960
01/11/99,20:30:01,46,62,-8,96,960
01/11/99,20:35:01,29,72,-8,90,960
01/11/99,20:40:01,32,72,-8,84,960
01/11/99,20:45:01,91,175,-8,102,960
01/11/99,20:50:01,103,164,-8,154,960
01/11/99,20:55:01,85,178,-8,183,960
01/11/99,21:00:01,108,180,-8,248,960
01/11/99,21:05:01,34,187,-8,225,960
01/11/99,21:10:01,20,201,-8,180,960
01/11/99,21:15:01,11,109,-8,239,960
01/11/99,21:20:01,11,31,-8,202,960
01/11/99,21:25:01,58,21,-8,198,960
01/11/99,21:30:01,57,20,-8,282,960
01/11/99,21:35:01,62,49,-8,252,960
01/11/99,21:40:01,44,39,-8,401,960
01/11/99,21:45:01,45,43,-8,677,960
01/11/99,21:50:01,25,18,-7,323,960
01/11/99,21:55:01,23,354,-8,207,960
01/11/99,22:00:01,10,257,-7,207,960
01/11/99,22:05:01,43,167,-7,212,960
01/11/99,22:10:01,134,151,-8,212,960
01/11/99,22:15:01,103,146,-8,264,960
01/11/99,22:20:01,171,171,-8,304,960
01/11/99,22:25:01,105,174,-8,186,960
01/11/99,22:30:01,66,158,-8,463,960
01/11/99,22:35:01,56,174,-8,334,960
01/11/99,22:40:01,61,338,-8,201,960
01/11/99,22:45:01,79,355,-9,456,960
01/11/99,22:50:01,61,347,-9,338,960
01/11/99,22:55:01,60,10,-8,669,960
01/11/99,23:00:01,33,16,-8,627,960
01/11/99,23:05:01,5,356,-8,563,960
01/11/99,23:10:01,80,168,-8,408,960
01/11/99,23:15:01,72,29,-8,555,960
01/11/99,23:20:01,96,178,-8,423,960
01/11/99,23:25:01,183,173,-8,378,960
01/11/99,23:30:01,128,175,-8,544,960
01/11/99,23:35:01,186,160,-8,591,960
01/11/99,23:40:01,104,168,-8,592,960
01/11/99,23:45:01,37,70,-8,672,960
01/11/99,23:50:01,36,165,-8,456,960
01/11/99,23:55:01,72,131,-7,603,960
01/12/99,00:00:01,100,125,-7,173,960
